Time,TemperatureF,DewpointF,PressureIn,WindDirection,WindDirectionDegrees,WindSpeedMPH,WindSpeedGustMPH,Humidity,HourlyPrecipIn,Conditions,Clouds,dailyrainin,SoftwareType,DateUTC
2013-02-18 00:09:00,10.2,1.0,29.81,NNE,15,12.0,-999.0,66,-99.99,,,0.00,weatherlink.com 1.10,2013-02-18 05:09:00,
2013-02-18 00:24:00,10.1,0.0,29.81,NNE,15,11.0,-999.0,65,-99.99,,,0.00,weatherlink.com 1.10,2013-02-18 05:24:00,
2013-02-18 00:39:00,10.1,0.0,29.83,NW,317,4.0,-999.0,65,-99.99,,,0.00,weatherlink.com 1.10,2013-02-18 05:39:00,
2013-02-18 00:55:00,9.9,0.0,29.83,NW,305,3.0,-999.0,65,-99.99,,,0.00,weatherlink.com 1.10,2013-02-18 05:55:00,
2013-02-18 01:10:00,9.9,0.0,29.84,WNW,294,8.0,-999.0,65,-99.99,,,0.00,weatherlink.com 1.10,2013-02-18 06:10:00,
2013-02-18 01:25:00,9.8,1.0,29.84,NW,315,3.0,-999.0,66,-99.99,,,0.00,weatherlink.com 1.10,2013-02-18 06:25:00,
2013-02-18 01:40:00,9.6,1.0,29.84,WNW,282,0.0,-999.0,67,-99.99,,,0.00,weatherlink.com 1.10,2013-02-18 06:40:00,
2013-02-18 01:55:00,9.5,1.0,29.85,WSW,239,1.0,-999.0,67,-99.99,,,0.00,weatherlink.com 1.10,2013-02-18 06:55:00,
2013-02-18 02:10:00,9.4,0.0,29.85,WNW,283,1.0,-999.0,67,-99.99,,,0.00,weatherlink.com 1.10,2013-02-18 07:10:00,
2013-02-18 02:25:00,9.4,0.0,29.85,North,4,3.0,-999.0,67,-99.99,,,0.00,weatherlink.com 1.10,2013-02-18 07:25:00,
2013-02-18 02:40:00,9.3,0.0,29.86,West,272,1.0,-999.0,66,-99.99,,,0.00,weatherlink.com 1.10,2013-02-18 07:40:00,
2013-02-18 02:55:00,9.2,0.0,29.88,NNE,20,1.0,-999.0,66,-99.99,,,0.00,weatherlink.com 1.10,2013-02-18 07:55:00,
2013-02-18 03:10:00,9.1,0.0,29.89,NW,315,2.0,-999.0,66,-99.99,,,0.00,weatherlink.com 1.10,2013-02-18 08:10:00,
2013-02-18 03:26:00,9.0,0.0,29.90,NE,48,1.0,-999.0,66,-99.99,,,0.00,weatherlink.com 1.10,2013-02-18 08:26:00,
2013-02-18 03:41:00,9.0,0.0,29.91,North,356,4.0,-999.0,66,-99.99,,,0.00,weatherlink.com 1.10,2013-02-18 08:41:00,
2013-02-18 03:55:00,9.0,0.0,29.92,NW,311,0.0,-999.0,66,-99.99,,,0.00,weatherlink.com 1.10,2013-02-18 08:55:00,
2013-02-18 04:10:00,9.0,-1.0,29.92,NW,314,7.0,-999.0,65,-99.99,,,0.00,weatherlink.com 1.10,2013-02-18 09:10:00,
2013-02-18 04:26:00,9.0,-1.0,29.93,NW,323,3.0,-999.0,65,-99.99,,,0.00,weatherlink.com 1.10,2013-02-18 09:26:00,
2013-02-18 04:41:00,8.9,-1.0,29.94,WNW,298,3.0,-999.0,65,-99.99,,,0.00,weatherlink.com 1.10,2013-02-18 09:41:00,
2013-02-18 04:56:00,8.8,-1.0,29.95,NW,304,0.0,-999.0,65,-99.99,,,0.00,weatherlink.com 1.10,2013-02-18 09:56:00,
2013-02-18 05:11:00,8.9,-1.0,29.95,NNE,20,4.0,-999.0,64,-99.99,,,0.00,weatherlink.com 1.10,2013-02-18 10:11:00,
2013-02-18 05:26:00,9.0,-1.0,29.96,North,5,3.0,-999.0,63,-99.99,,,0.00,weatherlink.com 1.10,2013-02-18 10:26:00,
2013-02-18 05:41:00,8.8,-1.0,29.96,NW,318,11.0,-999.0,64,-99.99,,,0.00,weatherlink.com 1.10,2013-02-18 10:41:00,
2013-02-18 05:56:00,8.8,-2.0,29.97,NNW,332,4.0,-999.0,63,-99.99,,,0.00,weatherlink.com 1.10,2013-02-18 10:56:00,
2013-02-18 06:11:00,8.7,-1.0,29.98,NNW,345,4.0,-999.0,64,-99.99,,,0.00,weatherlink.com 1.10,2013-02-18 11:11:00,
2013-02-18 06:26:00,8.5,-2.0,29.99,NNE,26,2.0,-999.0,64,-99.99,,,0.00,weatherlink.com 1.10,2013-02-18 11:26:00,
2013-02-18 06:41:00,8.3,-2.0,30.00,NNE,15,3.0,-999.0,64,-99.99,,,0.00,weatherlink.com 1.10,2013-02-18 11:41:00,
2013-02-18 06:56:00,8.3,-2.0,30.00,North,10,3.0,-999.0,64,-99.99,,,0.00,weatherlink.com 1.10,2013-02-18 11:56:00,
2013-02-18 07:11:00,8.4,-2.0,30.02,North,1,0.0,-999.0,64,-99.99,,,0.00,weatherlink.com 1.10,2013-02-18 12:11:00,
2013-02-18 07:26:00,9.6,-1.0,30.02,North,352,5.0,-999.0,62,-99.99,,,0.00,weatherlink.com 1.10,2013-02-18 12:26:00,
2013-02-18 07:42:00,10.4,-1.0,30.03,NNE,15,3.0,-999.0,60,-99.99,,,0.00,weatherlink.com 1.10,2013-02-18 12:42:00,
2013-02-18 07:57:00,11.5,0.0,30.03,NE,36,3.0,-999.0,59,-99.99,,,0.00,weatherlink.com 1.10,2013-02-18 12:57:00,
2013-02-18 08:12:00,12.7,0.0,30.05,East,98,3.0,-999.0,56,-99.99,,,0.00,weatherlink.com 1.10,2013-02-18 13:12:00,
2013-02-18 08:27:00,14.1,1.0,30.06,ENE,59,2.0,-999.0,55,-99.99,,,0.00,weatherlink.com 1.10,2013-02-18 13:27:00,
2013-02-18 08:42:00,14.6,0.0,30.08,WNW,298,3.0,-999.0,52,-99.99,,,0.00,weatherlink.com 1.10,2013-02-18 13:42:00,
2013-02-18 08:57:00,14.3,-1.0,30.08,WNW,299,5.0,-999.0,50,-99.99,,,0.00,weatherlink.com 1.10,2013-02-18 13:57:00,
2013-02-18 09:12:00,14.5,-3.0,30.08,NNW,338,11.0,-999.0,47,-99.99,,,0.00,weatherlink.com 1.10,2013-02-18 14:12:00,
2013-02-18 09:27:00,15.0,-2.0,30.08,North,357,9.0,-999.0,47,-99.99,,,0.00,weatherlink.com 1.10,2013-02-18 14:27:00,
2013-02-18 09:42:00,16.1,-2.0,30.08,NNW,342,10.0,-999.0,44,-99.99,,,0.00,weatherlink.com 1.10,2013-02-18 14:42:00,
2013-02-18 09:58:00,16.4,-3.0,30.09,West,280,11.0,-999.0,42,-99.99,,,0.00,weatherlink.com 1.10,2013-02-18 14:58:00,
2013-02-18 10:12:00,17.3,-3.0,30.09,WNW,298,6.0,-999.0,40,-99.99,,,0.00,weatherlink.com 1.10,2013-02-18 15:12:00,
2013-02-18 10:27:00,17.9,-2.0,30.10,North,355,7.0,-999.0,41,-99.99,,,0.00,weatherlink.com 1.10,2013-02-18 15:27:00,
2013-02-18 10:43:00,17.9,-2.0,30.10,NW,321,9.0,-999.0,41,-99.99,,,0.00,weatherlink.com 1.10,2013-02-18 15:43:00,
2013-02-18 10:58:00,18.2,-3.0,30.10,NW,311,16.0,-999.0,40,-99.99,,,0.00,weatherlink.com 1.10,2013-02-18 15:58:00,
2013-02-18 11:13:00,18.6,-3.0,30.10,NW,317,5.0,-999.0,39,-99.99,,,0.00,weatherlink.com 1.10,2013-02-18 16:13:00,
2013-02-18 11:28:00,19.7,-3.0,30.09,NNW,347,10.0,-999.0,37,-99.99,,,0.00,weatherlink.com 1.10,2013-02-18 16:28:00,
2013-02-18 11:43:00,20.4,-4.0,30.10,North,10,13.0,-999.0,34,-99.99,,,0.00,weatherlink.com 1.10,2013-02-18 16:43:00,
2013-02-18 11:58:00,20.7,-4.0,30.10,WNW,299,5.0,-999.0,33,-99.99,,,0.00,weatherlink.com 1.10,2013-02-18 16:58:00,
2013-02-18 12:13:00,21.4,-4.0,30.09,North,357,11.0,-999.0,33,-99.99,,,0.00,weatherlink.com 1.10,2013-02-18 17:13:00,
2013-02-18 12:28:00,21.1,-3.0,30.10,NNE,24,6.0,-999.0,34,-99.99,,,0.00,weatherlink.com 1.10,2013-02-18 17:28:00,
2013-02-18 12:43:00,21.9,-3.0,30.09,NW,311,5.0,-999.0,33,-99.99,,,0.00,weatherlink.com 1.10,2013-02-18 17:43:00,
2013-02-18 12:58:00,21.9,-3.0,30.09,NW,312,3.0,-999.0,34,-99.99,,,0.00,weatherlink.com 1.10,2013-02-18 17:58:00,
2013-02-18 13:13:00,22.0,-3.0,30.09,NW,319,0.0,-999.0,33,-99.99,,,0.00,weatherlink.com 1.10,2013-02-18 18:13:00,
2013-02-18 13:29:00,22.3,-4.0,30.09,North,355,18.0,-999.0,32,-99.99,,,0.00,weatherlink.com 1.10,2013-02-18 18:29:00,
2013-02-18 13:44:00,22.9,-4.0,30.08,NW,326,6.0,-999.0,31,-99.99,,,0.00,weatherlink.com 1.10,2013-02-18 18:44:00,
2013-02-18 13:58:00,23.6,-4.0,30.08,NNW,328,7.0,-999.0,30,-99.99,,,0.00,weatherlink.com 1.10,2013-02-18 18:58:00,
2013-02-18 14:14:00,24.0,-3.0,30.08,NE,52,7.0,-999.0,31,-99.99,,,0.00,weatherlink.com 1.10,2013-02-18 19:14:00,
2013-02-18 14:29:00,24.5,-1.0,30.08,ESE,105,0.0,-999.0,33,-99.99,,,0.00,weatherlink.com 1.10,2013-02-18 19:29:00,
2013-02-18 14:44:00,24.5,-3.0,30.08,West,281,0.0,-999.0,30,-99.99,,,0.00,weatherlink.com 1.10,2013-02-18 19:44:00,
2013-02-18 14:59:00,24.2,-4.0,30.09,NNW,333,1.0,-999.0,29,-99.99,,,0.00,weatherlink.com 1.10,2013-02-18 19:59:00,
2013-02-18 15:14:00,24.3,-4.0,30.09,North,2,3.0,-999.0,29,-99.99,,,0.00,weatherlink.com 1.10,2013-02-18 20:14:00,
2013-02-18 15:29:00,24.3,-2.0,30.10,NNW,336,4.0,-999.0,31,-99.99,,,0.00,weatherlink.com 1.10,2013-02-18 20:29:00,
2013-02-18 15:44:00,25.0,-3.0,30.10,North,1,6.0,-999.0,29,-99.99,,,0.00,weatherlink.com 1.10,2013-02-18 20:44:00,
2013-02-18 15:59:00,24.7,-3.0,30.11,SW,218,1.0,-999.0,30,-99.99,,,0.00,weatherlink.com 1.10,2013-02-18 20:59:00,
2013-02-18 16:14:00,24.6,-2.0,30.12,SE,132,2.0,-999.0,31,-99.99,,,0.00,weatherlink.com 1.10,2013-02-18 21:14:00,
2013-02-18 16:29:00,24.0,-4.0,30.11,ENE,76,2.0,-999.0,29,-99.99,,,0.00,weatherlink.com 1.10,2013-02-18 21:29:00,
2013-02-18 16:44:00,24.0,-4.0,30.13,NNW,336,3.0,-999.0,29,-99.99,,,0.00,weatherlink.com 1.10,2013-02-18 21:44:00,
2013-02-18 16:59:00,23.6,-4.0,30.14,SSW,211,1.0,-999.0,30,-99.99,,,0.00,weatherlink.com 1.10,2013-02-18 21:59:00,
2013-02-18 17:15:00,23.4,-4.0,30.14,SSW,193,0.0,-999.0,30,-99.99,,,0.00,weatherlink.com 1.10,2013-02-18 22:15:00,
2013-02-18 17:29:00,23.3,-4.0,30.15,NW,311,0.0,-999.0,30,-99.99,,,0.00,weatherlink.com 1.10,2013-02-18 22:29:00,
2013-02-18 17:44:00,23.1,-4.0,30.16,NW,315,4.0,-999.0,31,-99.99,,,0.00,weatherlink.com 1.10,2013-02-18 22:44:00,
2013-02-18 18:00:00,22.6,-4.0,30.16,NNW,330,1.0,-999.0,31,-99.99,,,0.00,weatherlink.com 1.10,2013-02-18 23:00:00,
2013-02-18 18:15:00,22.2,-3.0,30.16,NW,320,2.0,-999.0,33,-99.99,,,0.00,weatherlink.com 1.10,2013-02-18 23:15:00,
2013-02-18 18:30:00,22.0,-3.0,30.17,West,260,2.0,-999.0,33,-99.99,,,0.00,weatherlink.com 1.10,2013-02-18 23:30:00,
2013-02-18 18:45:00,21.8,-3.0,30.17,West,275,0.0,-999.0,34,-99.99,,,0.00,weatherlink.com 1.10,2013-02-18 23:45:00,
2013-02-18 19:00:00,21.1,-3.0,30.17,West,280,2.0,-999.0,35,-99.99,,,0.00,weatherlink.com 1.10,2013-02-19 00:00:00,
2013-02-18 19:15:00,21.5,-3.0,30.17,WNW,301,0.0,-999.0,34,-99.99,,,0.00,weatherlink.com 1.10,2013-02-19 00:15:00,
2013-02-18 19:30:00,21.5,-3.0,30.17,WNW,286,1.0,-999.0,34,-99.99,,,0.00,weatherlink.com 1.10,2013-02-19 00:30:00,
2013-02-18 19:45:00,20.8,-3.0,30.17,West,271,0.0,-999.0,35,-99.99,,,0.00,weatherlink.com 1.10,2013-02-19 00:45:00,
2013-02-18 20:00:00,19.2,-3.0,30.17,South,191,0.0,-999.0,38,-99.99,,,0.00,weatherlink.com 1.10,2013-02-19 01:00:00,
2013-02-18 20:15:00,19.3,-3.0,30.18,SSW,200,2.0,-999.0,38,-99.99,,,0.00,weatherlink.com 1.10,2013-02-19 01:15:00,
2013-02-18 20:31:00,19.2,-3.0,30.17,NW,326,2.0,-999.0,37,-99.99,,,0.00,weatherlink.com 1.10,2013-02-19 01:31:00,
2013-02-18 20:46:00,19.3,-3.0,30.17,NW,317,3.0,-999.0,37,-99.99,,,0.00,weatherlink.com 1.10,2013-02-19 01:46:00,
2013-02-18 21:00:00,18.8,-3.0,30.18,NNW,335,3.0,-999.0,38,-99.99,,,0.00,weatherlink.com 1.10,2013-02-19 02:00:00,
2013-02-18 21:16:00,18.1,-3.0,30.18,NNW,334,2.0,-999.0,39,-99.99,,,0.00,weatherlink.com 1.10,2013-02-19 02:16:00,
2013-02-18 21:31:00,18.4,-3.0,30.17,NNW,328,0.0,-999.0,39,-99.99,,,0.00,weatherlink.com 1.10,2013-02-19 02:31:00,
2013-02-18 21:46:00,16.9,-3.0,30.17,NNW,348,4.0,-999.0,41,-99.99,,,0.00,weatherlink.com 1.10,2013-02-19 02:46:00,
2013-02-18 22:01:00,16.3,-3.0,30.17,NW,324,0.0,-999.0,43,-99.99,,,0.00,weatherlink.com 1.10,2013-02-19 03:01:00,
2013-02-18 22:16:00,16.2,-2.0,30.18,NW,320,0.0,-999.0,44,-99.99,,,0.00,weatherlink.com 1.10,2013-02-19 03:16:00,
2013-02-18 22:31:00,14.6,-2.0,30.18,NNW,332,2.0,-999.0,47,-99.99,,,0.00,weatherlink.com 1.10,2013-02-19 03:31:00,
2013-02-18 22:46:00,14.5,-2.0,30.18,NNW,332,0.0,-999.0,49,-99.99,,,0.00,weatherlink.com 1.10,2013-02-19 03:46:00,
2013-02-18 23:01:00,13.6,-2.0,30.17,NW,322,2.0,-999.0,50,-99.99,,,0.00,weatherlink.com 1.10,2013-02-19 04:01:00,
2013-02-18 23:16:00,14.4,-1.0,30.17,SSW,205,3.0,-999.0,51,-99.99,,,0.00,weatherlink.com 1.10,2013-02-19 04:16:00,
2013-02-18 23:31:00,12.6,-1.0,30.17,NW,307,1.0,-999.0,54,-99.99,,,0.00,weatherlink.com 1.10,2013-02-19 04:31:00,
2013-02-18 23:46:00,12.5,-1.0,30.17,NW,307,0.0,-999.0,54,-99.99,,,0.00,weatherlink.com 1.10,2013-02-19 04:46:00,